Jamestown, NY

4:13 PM EST on December 09, 2019 (GMT -0500)
Chautauqua County-Jamestown

Weather History for KJHW - October, 2019

Change the Weather History Date:

Thursday, October 31, 2019

  Actual Average Record
Temperature  
Mean Temperature 50 °F -  
Max Temperature 64 °F 55 °F 76 °F (1989)
Min Temperature 36 °F 29 °F 16 °F (1975)
Degree Days  
Heating Degree Days 14    
Moisture  
Dew Point 55 °F    
Average Humidity 96    
Maximum Humidity 100    
Minimum Humidity 79    
Precipitation  
Precipitation 0.96 in - - ()
Sea Level Pressure  
Sea Level Pressure 29.64 in    
Wind  
Wind Speed 10 mph (South)    
Max Wind Speed 30 mph    
Max Gust Speed 48 mph    
Visibility 5 miles    
Events Fog , Rain    
Averages and records for this station are not official NWS values.
T = Trace of Precipitation, MM = Missing Value Source: NWS Daily Summary

Daily Weather History Graph

Daily Weather History Graph

Search for Another Location

Airport or City:

Astronomy

Oct. 31, 2019 Rise Set
Actual Time 7:48 AM EDT 6:12 PM EDT
Civil Twilight 7:19 AM EDT 6:41 PM EDT
Nautical Twilight 6:46 AM EDT 7:14 PM EDT
Astronomical Twilight 6:13 AM EDT 7:46 PM EDT
Moon 11:38 AM EDT (10/31) 9:03 PM EDT (10/31)
Length of Visible Light 11h 21m
Length of Day
10h 23m
Waxing Crescent, 15% of the Moon is Illuminated
Oct 31
Waxing Crescent
Nov 4
First Quarter
Nov 12
Full
Nov 19
Last Quarter
Nov 26
New

Hourly Weather History & Observations

Time (EDT) Temp. Windchill Dew Point Humidity Pressure Visibility Wind Dir Wind Speed Gust Speed Precip Events Conditions
12:56 AM 55.0 °F - 54.0 °F 96% 29.88 in 10.0 mi South 9.2 mph - 0.02 in Rain Light Rain
1:56 AM 55.9 °F - 54.0 °F 93% 29.87 in 10.0 mi South 10.4 mph - 0.01 in   Overcast
2:39 AM 55.4 °F - 55.4 °F 100% 29.84 in 10.0 mi South 10.4 mph - N/A   Overcast
2:56 AM 55.9 °F - 55.0 °F 97% 29.85 in 10.0 mi South 10.4 mph - N/A   Overcast
3:56 AM 55.9 °F - 55.0 °F 97% 29.82 in 10.0 mi South 10.4 mph - N/A   Overcast
4:05 AM 55.4 °F - 55.4 °F 100% 29.80 in 10.0 mi South 9.2 mph - N/A   Overcast
4:56 AM 57.0 °F - 55.9 °F 96% 29.80 in 4.0 mi South 4.6 mph - N/A   Overcast
5:04 AM 57.2 °F - 55.4 °F 94% 29.78 in 4.0 mi SSE 6.9 mph - N/A   Overcast
5:08 AM 55.4 °F - 55.4 °F 100% 29.77 in 1.5 mi SSE 4.6 mph - N/A   Overcast
5:11 AM 55.4 °F - 55.4 °F 100% 29.77 in 0.8 mi SSE 5.8 mph - N/A   Overcast
5:18 AM 55.4 °F - 55.4 °F 100% 29.77 in 0.2 mi South 4.6 mph - N/A Fog Fog
5:54 AM 57.2 °F - 55.4 °F 94% 29.78 in 0.8 mi South 6.9 mph - N/A   Overcast
5:56 AM 57.0 °F - 57.0 °F 100% 29.79 in 0.8 mi South 6.9 mph - N/A   Overcast
6:18 AM 57.2 °F - 55.4 °F 94% 29.77 in 0.2 mi South 6.9 mph - N/A Fog Fog
6:37 AM 57.2 °F - 57.2 °F 100% 29.76 in 0.5 mi South 5.8 mph - N/A Fog Fog
6:42 AM 57.2 °F - 57.2 °F 100% 29.77 in 1.0 mi South 5.8 mph - N/A   Overcast
6:48 AM 57.2 °F - 57.2 °F 100% 29.77 in 2.0 mi South 8.1 mph - N/A   Overcast
6:56 AM 57.0 °F - 57.0 °F 100% 29.77 in 7.0 mi South 4.6 mph - N/A   Overcast
7:05 AM 57.2 °F - 57.2 °F 100% 29.76 in 1.8 mi South 6.9 mph - N/A   Overcast
7:23 AM 57.2 °F - 57.2 °F 100% 29.75 in 0.8 mi South 5.8 mph - 0.00 in Rain Light Rain
7:33 AM 57.2 °F - 57.2 °F 100% 29.75 in 0.5 mi South 4.6 mph - 0.00 in Fog , Rain Light Rain
7:56 AM 57.0 °F - 57.0 °F 100% 29.77 in 0.2 mi South 6.9 mph - 0.00 in Fog Fog
8:56 AM 57.9 °F - 57.9 °F 100% 29.73 in 0.2 mi South 8.1 mph - 0.01 in Fog Fog
9:14 AM 57.2 °F - 57.2 °F 100% 29.71 in 0.8 mi South 11.5 mph - N/A   Overcast
9:35 AM 59.0 °F - 57.2 °F 94% 29.71 in 3.0 mi South 10.4 mph - 0.00 in Rain Light Rain
9:56 AM 59.0 °F - 59.0 °F 100% 29.71 in 3.0 mi South 6.9 mph - 0.01 in Rain Light Rain
10:46 AM 60.8 °F - 59.0 °F 94% 29.67 in 1.8 mi South 3.5 mph - 0.00 in Rain Light Rain
10:56 AM 60.1 °F - 60.1 °F 100% 29.68 in 1.5 mi South 4.6 mph - 0.01 in Rain Light Rain
11:03 AM 60.8 °F - 60.8 °F 100% 29.67 in 0.8 mi South 5.8 mph - 0.00 in Rain Light Rain
11:11 AM 60.8 °F - 60.8 °F 100% 29.66 in 1.2 mi South 4.6 mph - 0.01 in Rain Light Rain
11:25 AM 60.8 °F - 60.8 °F 100% 29.65 in 1.8 mi SSE 5.8 mph - 0.03 in Rain Rain
11:37 AM 60.8 °F - 60.8 °F 100% 29.62 in 3.0 mi SE 5.8 mph - 0.06 in Rain Light Rain
11:56 AM 60.1 °F - 60.1 °F 100% 29.62 in 4.0 mi SSE 5.8 mph - 0.08 in Rain Rain
12:27 PM 60.8 °F - 60.8 °F 100% 29.57 in 2.5 mi ESE 8.1 mph - 0.14 in Rain Heavy Rain
12:36 PM 60.8 °F - 60.8 °F 100% 29.57 in 4.0 mi South 8.1 mph - 0.17 in Rain Rain
12:51 PM 60.8 °F - 60.8 °F 100% 29.56 in 2.0 mi SSE 9.2 mph - 0.26 in Rain Heavy Rain
12:56 PM 61.0 °F - 61.0 °F 100% 29.55 in 2.0 mi SSE 9.2 mph - 0.27 in Rain Rain
1:13 PM 60.8 °F - 60.8 °F 100% 29.54 in 1.2 mi Variable 4.6 mph - 0.02 in Rain Light Rain
1:18 PM 60.8 °F - 60.8 °F 100% 29.54 in 3.0 mi West 5.8 mph - 0.02 in Rain Light Rain
1:56 PM 62.1 °F - 61.0 °F 96% 29.48 in 10.0 mi SE 11.5 mph 16.1 mph 0.06 in Rain Light Rain
2:56 PM 62.1 °F - 62.1 °F 100% 29.44 in 6.0 mi SW 6.9 mph - 0.10 in Rain Light Rain
3:31 PM 62.6 °F - 62.6 °F 100% 29.44 in 9.0 mi SSW 8.1 mph - 0.08 in Rain Rain
3:56 PM 64.0 °F - 63.0 °F 96% 29.43 in 10.0 mi South 13.8 mph 17.3 mph 0.11 in Rain Rain
4:07 PM 64.4 °F - 62.6 °F 94% 29.43 in 10.0 mi SSW 11.5 mph 18.4 mph 0.02 in Rain Light Rain
4:56 PM 64.0 °F - 63.0 °F 96% 29.41 in 9.0 mi South 6.9 mph - 0.08 in Rain Light Rain
5:04 PM 64.4 °F - 62.6 °F 94% 29.40 in 10.0 mi South 5.8 mph - 0.00 in Rain Light Rain
5:56 PM 64.0 °F - 63.0 °F 96% 29.37 in 5.0 mi South 11.5 mph - 0.07 in Rain Rain
6:36 PM 55.4 °F - 53.6 °F 94% 29.42 in 6.0 mi WNW 17.3 mph 25.3 mph 0.03 in Rain Light Rain
6:56 PM 53.1 °F - 52.0 °F 96% 29.45 in 5.0 mi West 16.1 mph 23.0 mph 0.07 in Rain Rain
7:16 PM 51.8 °F - 51.8 °F 100% 29.46 in 4.0 mi West 17.3 mph 21.9 mph 0.04 in Rain Light Rain
7:56 PM 52.0 °F - 50.0 °F 93% 29.50 in 9.0 mi WSW 20.7 mph 29.9 mph 0.05 in Rain Light Rain
8:56 PM 46.0 °F 37.2 °F 44.1 °F 93% 29.54 in 6.0 mi WSW 26.5 mph 36.8 mph 0.00 in Rain Light Rain
9:28 PM 44.6 °F 36.1 °F 41.0 °F 87% 29.55 in 9.0 mi SW 21.9 mph 38.0 mph 0.01 in Rain Light Rain
9:32 PM 44.6 °F 35.3 °F 39.2 °F 81% 29.55 in 10.0 mi SW 26.5 mph 38.0 mph 0.01 in Rain Light Rain
9:34 PM 42.8 °F 32.7 °F 39.2 °F 87% 29.55 in 10.0 mi SW 27.6 mph 38.0 mph 0.01 in Rain Light Rain
9:41 PM 42.8 °F 32.7 °F 37.4 °F 81% 29.55 in 10.0 mi SW 27.6 mph 41.4 mph 0.01 in   Mostly Cloudy
9:56 PM 42.1 °F 32.3 °F 37.9 °F 85% 29.59 in 10.0 mi SW 24.2 mph 33.4 mph 0.01 in Rain Light Rain
10:56 PM 37.9 °F 26.8 °F 34.0 °F 86% 29.63 in 10.0 mi SSW 24.2 mph 34.5 mph 0.00 in Rain Light Rain
11:56 PM 36.0 °F 23.0 °F 30.0 °F 79% 29.66 in 10.0 mi SW 29.9 mph 48.3 mph 0.00 in Rain Light Rain